Retour au catalogue

SHIYAN 20A DEB

ActifLEO
NORAD 55716·DEBRIS·🇨🇳 China

Lancé Dec 12, 2022 depuis Jiuquan Satellite Launch Center

Loading…

Prochains Passages (prochaines 24 heures)

TLE

FraisSource: Space-Track

Époque: Sep 14, 2026, 08:33 UTC

1 55716U 22169E   26257.35638153  .00000437  00000-0  20920-3 0  9990
2 55716  59.9952 292.2768 0004843 354.4211   5.6771 14.33027257185756

Suivez SHIYAN 20A DEB en temps réel avec AllMySat

Download on the App Store